Weather History for KTQE - March, 2013

Change the Weather History Date:

Wednesday, March 27, 2013

  Actual Average Record
Temperature  
Mean Temperature 37 °F -  
Max Temperature 53 °F 56 °F 84 °F (1989)
Min Temperature 21 °F 30 °F 6 °F (1955)
Degree Days  
Heating Degree Days 28    
Moisture  
Dew Point 25 °F    
Average Humidity 64    
Maximum Humidity 85    
Minimum Humidity 38    
Precipitation  
Precipitation 0.00 in - - ()
Sea Level Pressure  
Sea Level Pressure 30.26 in    
Wind  
Wind Speed 7 mph (SE)    
Max Wind Speed 16 mph    
Max Gust Speed 20 mph    
Visibility 7 miles    
Events      
Averages and records for this station are not official NWS values.
T = Trace of Precipitation, MM = Missing Value Source: NWS Daily Summary

Daily Weather History Graph

Daily Weather History Graph

Search for Another Location

Airport or City:

Trip Planner

Search our weather history database for the weather conditions in past years. The results will help you decide how hot, cold, wet, or windy it might be!

Date:

Astronomy

Mar. 27, 2013 Rise Set
Actual Time 7:15 AM CDT 7:44 PM CDT
Civil Twilight 6:47 AM CDT 8:12 PM CDT
Nautical Twilight 6:14 AM CDT 8:45 PM CDT
Astronomical Twilight 5:41 AM CDT 9:19 PM CDT
Moon 8:31 PM CDT (3/27) 7:06 AM CDT (3/27)
Length of Visible Light 13h 25m
Length of Day
12h 29m
Full, 100% of the Moon is Illuminated
Mar 27
Full
Apr 2
Last Quarter
Apr 10
New
Apr 18
First Quarter
Apr 25
Full

Hourly Weather History & Observations

Time (CDT) Temp. Windchill Dew Point Humidity Pressure Visibility Wind Dir Wind Speed Gust Speed Precip Events Conditions
12:54 AM 28.0 °F - 21.0 °F 75% 30.29 in 7.0 mi Calm Calm - N/A   Clear
1:54 AM 25.0 °F 18.1 °F 19.9 °F 81% 30.29 in 7.0 mi South 5.8 mph - N/A   Clear
2:54 AM 24.1 °F 19.7 °F 19.9 °F 84% 30.28 in 5.0 mi SE 3.5 mph - N/A   Clear
3:54 AM 24.1 °F 16.0 °F 19.0 °F 81% 30.27 in 7.0 mi SE 6.9 mph - N/A   Clear
4:54 AM 25.0 °F 20.7 °F 19.9 °F 81% 30.27 in 7.0 mi SE 3.5 mph - N/A   Clear
5:54 AM 23.0 °F 14.7 °F 18.0 °F 81% 30.26 in 6.0 mi SSE 6.9 mph - N/A   Haze
6:54 AM 21.9 °F 14.5 °F 18.0 °F 85% 30.27 in 5.0 mi SSE 5.8 mph - N/A   Clear
7:54 AM 25.0 °F 18.1 °F 21.0 °F 85% 30.29 in 5.0 mi SE 5.8 mph - N/A   Clear
8:54 AM 30.9 °F 22.8 °F 23.0 °F 72% 30.30 in 7.0 mi SE 9.2 mph - N/A   Clear
9:54 AM 36.0 °F 27.1 °F 25.0 °F 64% 30.30 in 7.0 mi SE 13.8 mph - N/A   Clear
10:54 AM 41.0 °F 33.9 °F 25.0 °F 53% 30.30 in 8.0 mi SE 12.7 mph - N/A   Clear
11:54 AM 44.1 °F 36.8 °F 26.1 °F 49% 30.28 in 9.0 mi ESE 16.1 mph - N/A   Scattered Clouds
12:54 PM 46.9 °F - 26.1 °F 44% 30.26 in 10.0 mi SE 12.7 mph - N/A   Clear
1:54 PM 51.1 °F - 26.1 °F 38% 30.24 in 9.0 mi SSE 16.1 mph - N/A   Clear
2:54 PM 52.0 °F - 28.0 °F 40% 30.22 in 7.0 mi ESE 11.5 mph - N/A   Clear
3:54 PM 52.0 °F - 28.0 °F 40% 30.20 in 8.0 mi ESE 12.7 mph - N/A   Clear
4:54 PM 53.1 °F - 30.0 °F 41% 30.20 in 8.0 mi ESE 13.8 mph 19.6 mph N/A   Clear
5:54 PM 51.1 °F - 30.9 °F 46% 30.20 in 8.0 mi SE 12.7 mph - N/A   Mostly Cloudy
6:54 PM 51.1 °F - 30.9 °F 46% 30.21 in 9.0 mi SE 11.5 mph - N/A   Overcast
7:54 PM 46.0 °F 41.9 °F 32.0 °F 58% 30.22 in 9.0 mi ESE 8.1 mph - N/A   Overcast
8:54 PM 43.0 °F 38.2 °F 30.9 °F 62% 30.23 in 8.0 mi ESE 8.1 mph - N/A   Mostly Cloudy
9:54 PM 39.0 °F 32.3 °F 30.0 °F 70% 30.25 in 8.0 mi ESE 10.4 mph - N/A   Clear
10:54 PM 37.0 °F 31.6 °F 28.9 °F 73% 30.26 in 7.0 mi SE 6.9 mph - N/A   Clear
11:54 PM 32.0 °F 28.7 °F 26.1 °F 79% 30.26 in 6.0 mi SSE 3.5 mph - N/A   Haze